Location: Anuling
(14.1239°N, 120.8922°E)
Time: 12:25:21
(UTC+00:00)

Cosmos 2218 Rocket - Pass Details

Date: 19 April 2026
Orbit: 955 x 1005 km, 82.9° (Epoch: 11 May)

Event Time Altitude Azimuth Distance (km) Brightness Sun altitude
Rises 11:11:43 0° 172° (S) 3,640 6.8 -15.2°
Reaches altitude 10° 11:14:17 10° 168° (SSE) 2,688 6.0 -15.8°
Maximum altitude 11:20:14 54° 92° (E) 1,153 4.0 -17.2°
Drops below altitude 10° 11:26:10 10° 17° (NNE) 2,678 6.3 -18.6°
Sets 11:28:42 0° 12° (NNE) 3,625 7.1 -19.2°
